User: anonymous   Login
Location: Follega
(52.8850°N, 5.7362°E)
Time: 03:18:02
(UTC+00:00)
Language:

SL-27 R/B - Orbit

View from above orbital plane
View from above orbital plane
View from above satellite
View from above satellite

Ground track
Ground track

The orbit data is extracted from the following two-line orbital elements,

1 40354U 14084B   20221.87880100 +.00000674 +00000-0 +17667-4 0  9990
2 40354 074.7374 279.6327 0036101 081.5345 278.9956 15.40293991316204
Epoch (UTC): 08 August 2020 21:05:28
Eccentricity: 0.0036101
inclination: 74.7374°
perigee height: 420 km
apogee height: 470 km
right ascension of ascending node: 279.6327°
argument of perigee: 81.5345°
revolutions per day: 15.40293991
mean anomaly at epoch: 278.9956°
orbit number at epoch: 31620

The dashed part of the orbit path shows where the satellite is in the earth's shadow,  

DLR